Windom, MN

1:51 AM CST on November 23, 2017 (GMT -0600)
Windom Municipal

Weather History for KMWM - December, 2014

Change the Weather History Date:

Friday, December 12, 2014

  Actual Average Record
Temperature  
Mean Temperature 38 °F -  
Max Temperature 42 °F 29 °F 51 °F (1999)
Min Temperature 33 °F 11 °F -16 °F (2000)
Degree Days  
Heating Degree Days 28    
Moisture  
Dew Point 36 °F    
Average Humidity 93    
Maximum Humidity 100    
Minimum Humidity 87    
Precipitation  
Precipitation 0.00 in - - ()
Sea Level Pressure  
Sea Level Pressure 30.11 in    
Wind  
Wind Speed 15 mph (SSW)    
Max Wind Speed 21 mph    
Max Gust Speed 26 mph    
Visibility 5 miles    
Events      
Averages and records for this station are not official NWS values.
T = Trace of Precipitation, MM = Missing Value Source: NWS Daily Summary

Daily Weather History Graph

Daily Weather History Graph

Search for Another Location

Airport or City:

Trip Planner

Search our weather history database for the weather conditions in past years. The results will help you decide how hot, cold, wet, or windy it might be!

Date:

Astronomy

Dec. 12, 2014 Rise Set
Actual Time 7:45 AM CST 4:42 PM CST
Civil Twilight 7:12 AM CST 5:15 PM CST
Nautical Twilight 6:36 AM CST 5:52 PM CST
Astronomical Twilight 6:01 AM CST 6:27 PM CST
Moon 10:59 PM CST (12/12) 11:31 AM CST (12/12)
Length of Visible Light 10h 02m
Length of Day
8h 57m
Waning Gibbous, 67% of the Moon is Illuminated
Dec 12
Waning Gibbous
Dec 14
Last Quarter
Dec 21
New
Dec 28
First Quarter
Jan 4
Full

Hourly Weather History & Observations

Time (CST) Temp. Windchill Dew Point Humidity Pressure Visibility Wind Dir Wind Speed Gust Speed Precip Events Conditions
12:14 AM 35.6 °F 25.5 °F 32.0 °F 87% 30.15 in 4.0 mi SSW 17.3 mph - N/A   Overcast
12:33 AM 33.8 °F 23.9 °F 32.0 °F 93% 30.14 in 4.0 mi SSW 15.0 mph 21.9 mph N/A   Overcast
12:53 AM 33.8 °F 23.9 °F 32.0 °F 93% 30.15 in 4.0 mi SSW 15.0 mph - N/A   Overcast
1:14 AM 33.8 °F 24.3 °F 32.0 °F 93% 30.15 in 4.0 mi SSW 13.8 mph 18.4 mph N/A   Overcast
1:33 AM 33.8 °F 25.8 °F 32.0 °F 93% 30.15 in 4.0 mi SSW 10.4 mph - N/A   Overcast
1:53 AM 33.8 °F 25.3 °F 32.0 °F 93% 30.16 in 4.0 mi SSW 11.5 mph - N/A   Overcast
2:14 AM 33.8 °F 24.3 °F 32.0 °F 93% 30.16 in 4.0 mi SSW 13.8 mph 19.6 mph N/A   Overcast
2:33 AM 33.8 °F 23.5 °F 32.0 °F 93% 30.16 in 4.0 mi SSW 16.1 mph - N/A   Overcast
2:53 AM 33.8 °F 25.8 °F 32.0 °F 93% 30.16 in 4.0 mi South 10.4 mph 20.7 mph N/A   Overcast
3:14 AM 33.8 °F 25.3 °F 32.0 °F 93% 30.15 in 3.0 mi South 11.5 mph - N/A   Overcast
3:33 AM 33.8 °F 23.9 °F 32.0 °F 93% 30.14 in 3.0 mi South 15.0 mph 21.9 mph N/A   Overcast
3:53 AM 33.8 °F 25.3 °F 32.0 °F 93% 30.14 in 3.0 mi South 11.5 mph 18.4 mph N/A   Overcast
4:13 AM 33.8 °F 24.8 °F 32.0 °F 93% 30.14 in 4.0 mi SSW 12.7 mph 17.3 mph N/A   Overcast
4:33 AM 33.8 °F 24.8 °F 32.0 °F 93% 30.14 in 4.0 mi South 12.7 mph - N/A   Overcast
4:54 AM 33.8 °F 23.9 °F 32.0 °F 93% 30.15 in 4.0 mi SSW 15.0 mph - N/A   Overcast
5:13 AM 33.8 °F 23.5 °F 32.0 °F 93% 30.14 in 4.0 mi SSW 16.1 mph 21.9 mph N/A   Overcast
5:33 AM 33.8 °F 23.5 °F 32.0 °F 93% 30.15 in 4.0 mi SSW 16.1 mph 23.0 mph N/A   Overcast
5:54 AM 33.8 °F 23.2 °F 32.0 °F 93% 30.16 in 4.0 mi SSW 17.3 mph 20.7 mph N/A   Overcast
6:13 AM 33.8 °F 22.5 °F 32.0 °F 93% 30.15 in 4.0 mi SSW 19.6 mph - N/A   Overcast
6:33 AM 33.8 °F 23.5 °F 32.0 °F 93% 30.14 in 3.0 mi SSW 16.1 mph - N/A   Overcast
6:54 AM 33.8 °F 23.5 °F 33.8 °F 100% 30.14 in 3.0 mi SSW 16.1 mph 24.2 mph N/A   Overcast
7:13 AM 33.8 °F 23.2 °F 33.8 °F 100% 30.14 in 3.0 mi SSW 17.3 mph 25.3 mph N/A   Overcast
7:33 AM 33.8 °F 23.9 °F 33.8 °F 100% 30.14 in 3.0 mi SSW 15.0 mph - N/A   Overcast
7:54 AM 33.8 °F 24.3 °F 33.8 °F 100% 30.16 in 4.0 mi SSW 13.8 mph 17.3 mph N/A   Overcast
8:13 AM 33.8 °F 22.8 °F 33.8 °F 100% 30.16 in 4.0 mi SSW 18.4 mph - N/A   Overcast
8:53 AM 33.8 °F 22.2 °F 33.8 °F 100% 30.15 in 2.0 mi SSW 20.7 mph 24.2 mph N/A   Overcast
9:13 AM 33.8 °F 23.2 °F 33.8 °F 100% 30.16 in 2.0 mi SSW 17.3 mph - N/A   Overcast
9:34 AM 33.8 °F 23.5 °F 33.8 °F 100% 30.16 in 2.0 mi SSW 16.1 mph 21.9 mph N/A   Overcast
9:53 AM 35.6 °F 25.2 °F 33.8 °F 93% 30.16 in 2.5 mi SSW 18.4 mph - N/A   Overcast
10:13 AM 35.6 °F 26.2 °F 33.8 °F 93% - 2.5 mi South 15.0 mph 20.7 mph N/A   Overcast
10:34 AM 35.6 °F 25.5 °F 33.8 °F 93% 30.15 in 4.0 mi SSW 17.3 mph 23.0 mph N/A   Mist
10:53 AM 35.6 °F 25.5 °F 33.8 °F 93% 30.14 in 7.0 mi SSW 17.3 mph 23.0 mph N/A   Overcast
11:13 AM 35.6 °F 25.9 °F 33.8 °F 93% 30.14 in 10.0 mi South 16.1 mph 24.2 mph N/A   Overcast
11:34 AM 37.4 °F 28.2 °F 35.6 °F 93% 30.12 in 10.0 mi South 16.1 mph 23.0 mph N/A   Overcast
11:53 AM 37.4 °F 27.8 °F 35.6 °F 93% 30.12 in 10.0 mi SSW 17.3 mph 21.9 mph N/A   Overcast
12:09 PM 37.4 °F 27.8 °F 35.6 °F 93% 30.11 in 10.0 mi South 17.3 mph 23.0 mph N/A   Overcast
12:34 PM 39.2 °F 30.2 °F 35.6 °F 87% 30.11 in 10.0 mi South 17.3 mph 21.9 mph N/A   Overcast
12:53 PM 39.2 °F 30.5 °F 37.4 °F 93% 30.10 in 7.0 mi SSW 16.1 mph 26.5 mph N/A   Overcast
1:14 PM 39.2 °F 30.2 °F 37.4 °F 93% 30.10 in 10.0 mi South 17.3 mph 24.2 mph N/A   Overcast
1:33 PM 41.0 °F 33.1 °F 37.4 °F 87% 30.09 in 10.0 mi SSW 15.0 mph - N/A   Overcast
1:53 PM 41.0 °F 33.1 °F 37.4 °F 87% 30.09 in 10.0 mi SSW 15.0 mph 23.0 mph N/A   Overcast
2:14 PM 41.0 °F 33.1 °F 37.4 °F 87% 30.08 in 7.0 mi SSW 15.0 mph 23.0 mph N/A   Overcast
2:33 PM 41.0 °F 32.8 °F 37.4 °F 87% 30.08 in 10.0 mi South 16.1 mph 20.7 mph N/A   Overcast
2:53 PM 41.0 °F 32.5 °F 37.4 °F 87% 30.08 in 10.0 mi South 17.3 mph 23.0 mph N/A   Overcast
3:14 PM 41.0 °F 33.5 °F 37.4 °F 87% 30.08 in 10.0 mi South 13.8 mph - N/A   Overcast
3:33 PM 41.0 °F 33.9 °F 37.4 °F 87% 30.08 in 10.0 mi South 12.7 mph 17.3 mph N/A   Overcast
3:53 PM 41.0 °F 33.1 °F 37.4 °F 87% 30.08 in 10.0 mi South 15.0 mph 18.4 mph N/A   Overcast
4:14 PM 41.0 °F 34.3 °F 37.4 °F 87% 30.08 in 7.0 mi South 11.5 mph - N/A   Overcast
4:33 PM 41.0 °F 33.9 °F 37.4 °F 87% 30.08 in 4.0 mi South 12.7 mph 20.7 mph N/A   Overcast
4:53 PM 41.0 °F 34.3 °F 37.4 °F 87% 30.09 in 4.0 mi SSW 11.5 mph 19.6 mph N/A   Overcast
5:14 PM 41.0 °F 34.3 °F 39.2 °F 93% 30.08 in 4.0 mi SSW 11.5 mph 17.3 mph N/A   Overcast
5:33 PM 41.0 °F 33.1 °F 39.2 °F 93% 30.08 in 5.0 mi SSW 15.0 mph 24.2 mph N/A   Overcast
5:53 PM 41.0 °F 32.5 °F 39.2 °F 93% 30.08 in 4.0 mi SSW 17.3 mph 24.2 mph N/A   Overcast
6:14 PM 42.8 °F 35.8 °F 39.2 °F 87% 30.07 in 4.0 mi SSW 13.8 mph 20.7 mph N/A   Overcast
6:33 PM 41.0 °F 34.3 °F 39.2 °F 93% 30.08 in 3.0 mi South 11.5 mph 17.3 mph N/A   Scattered Clouds
6:53 PM 41.0 °F 34.3 °F 39.2 °F 93% 30.07 in 3.0 mi South 11.5 mph - N/A   Clear
7:13 PM 41.0 °F 33.9 °F 39.2 °F 93% 30.06 in 3.0 mi South 12.7 mph 16.1 mph N/A   Clear
7:34 PM 42.8 °F 36.2 °F 39.2 °F 87% 30.06 in 4.0 mi South 12.7 mph 17.3 mph N/A   Clear
7:53 PM 42.8 °F 36.2 °F 39.2 °F 87% 30.05 in 5.0 mi South 12.7 mph 20.7 mph N/A   Clear
8:13 PM 42.8 °F 34.8 °F 39.2 °F 87% 30.05 in 5.0 mi South 17.3 mph 20.7 mph N/A   Clear
8:34 PM 39.2 °F 32.0 °F 37.4 °F 93% 30.05 in 4.0 mi SSW 11.5 mph - N/A   Clear
8:53 PM 41.0 °F 32.8 °F 39.2 °F 93% 30.05 in 4.0 mi SSW 16.1 mph - N/A   Clear
9:13 PM 39.2 °F 32.0 °F 39.2 °F 100% 30.05 in 4.0 mi SSW 11.5 mph - N/A   Clear
9:34 PM 39.2 °F 31.6 °F 39.2 °F 100% 30.05 in 4.0 mi SSW 12.7 mph - N/A   Scattered Clouds
9:53 PM 39.2 °F 31.6 °F 39.2 °F 100% 30.05 in 4.0 mi SSW 12.7 mph - N/A   Overcast
10:13 PM 41.0 °F 34.3 °F 39.2 °F 93% 30.04 in 4.0 mi SSW 11.5 mph - N/A   Overcast
10:34 PM 41.0 °F 34.7 °F 39.2 °F 93% 30.04 in 4.0 mi SSW 10.4 mph 16.1 mph N/A   Mostly Cloudy
10:53 PM 39.2 °F 33.0 °F 37.4 °F 93% 30.04 in 4.0 mi SSW 9.2 mph - N/A   Mist
11:13 PM 39.2 °F 34.2 °F 37.4 °F 93% 30.05 in 3.0 mi SSW 6.9 mph - N/A   Mist
11:34 PM 37.4 °F 31.4 °F 37.4 °F 100% 30.04 in 2.5 mi SSW 8.1 mph - N/A   Mist
11:53 PM 37.4 °F 32.1 °F 37.4 °F 100% 30.04 in 2.5 mi SSW 6.9 mph - N/A   Mist